Terminal Aerodrome Forecast
Issued by NWS Austin/San Antonio, TX

Home | Current Version | Previous Version | Text Only | Print | Product List | Glossary On
Versions: 1 2 3 4 5 6 7 8 9 10 11 12 13 14 15 16 17 18 19 20 21 22 23 24 25 26 27 28 29 30 31 32 33
000
FTUS44 KEWX 261505 AAB
TAFAUS
TAF AMD
KAUS 261505Z 2615/2718 19004KT 4SM BR OVC006
     FM261700 16008KT P6SM BKN010
     FM262000 16007KT P6SM SCT035
     FM270800 18005KT 4SM BR SCT025=

USA.gov is the U.S. government's official web portal to all federal, state and local government web resources and services.